Flag for Canada Weather past 2 weeks in Kitchener, Ontario, Canada

Now
32 °F

Partly cloudy.


Feels Like: 22 °F
Forecast: N/A
Wind: 13 mph from West

Location: Waterloo Well

Current Time: Dec 28, 2014 at 6:00:43 PM

Latest Report: Dec 28, 2014 at 5:00 PM


Visibility: 9 mi

Pressure: 30.07 "Hg

Humidity: 69%

Dew point: 23 °F

Location of KitchenerLocation

Historic Weather in Kitchener — Graph

°F

Kitchener temperature yesterday

Maximum temperature yesterday: 48 °F (at 2:57 PM)
Minimum temperature yesterday: 32 °F (at 12:00 AM)
Average temperature yesterday: 41 °F

Past Weeks' High & Low Weather Summary

 TemperatureHumidityPressure
High50 °F (Dec 24, 10:00 PM)100% (Dec 13, 9:00 PM)30.34 "Hg (Dec 13, 9:00 PM)
Low16 °F (Dec 20, 7:00 AM)64% (Dec 20, 1:00 PM)29.17 "Hg (Dec 24, 8:56 PM)
Average34 °F90%29.99 "Hg
* Reported Dec 13 5:00 PM — Dec 28 5:00 PM, Kitchener, Weather by CustomWeather, © 2014

Note: Actual official high and low records may vary slightly from our data, if they occured in-between our weather recording intervals... More about our weather records

Advertising

Kitchener weather history for previous 24 hours

 ConditionsComfort  
Time TempWeatherWind HumidityBarometerVisibility
5:00 PM
Dec 28
32 °FPartly cloudy.13 mph69%30.07 "Hg9 mi
4:00 PM32 °FPartly sunny.16 mph75%30.04 "Hg9 mi
3:00 PM34 °FMostly cloudy.14 mph70%30.02 "Hg9 mi
2:00 PM36 °FPartly sunny.17 mph65%30.00 "Hg9 mi
1:00 PM36 °FPartly sunny.14 mph65%30.01 "Hg9 mi
12:00 PM34 °FMostly cloudy.14 mph70%30.03 "Hg9 mi
11:00 AM34 °FMostly cloudy.7 mph70%30.04 "Hg9 mi
10:00 AM32 °FOvercast.8 mph69%30.04 "Hg9 mi
9:00 AM30 °FOvercast.13 mph75%30.02 "Hg9 mi
8:00 AM32 °FOvercast.15 mph75%30.01 "Hg9 mi
7:47 AM32 °FOvercast.12 mph75%30.01 "Hg9 mi
7:00 AM32 °FOvercast.17 mph75%29.99 "Hg9 mi
6:00 AM32 °FMostly cloudy.8 mph80%29.96 "Hg9 mi
5:58 AM32 °FMostly cloudy.10 mph80%29.96 "Hg9 mi
5:01 AM34 °FMostly cloudy.14 mph81%29.93 "Hg9 mi
4:00 AM34 °FMostly cloudy.12 mph87%29.92 "Hg9 mi
3:54 AM34 °FMostly cloudy.10 mph87%29.91 "Hg9 mi
3:00 AM37 °FOvercast.21 mph81%29.90 "Hg9 mi
2:00 AM37 °FOvercast.15 mph87%29.89 "Hg9 mi
1:00 AM37 °FMostly cloudy.15 mph87%29.89 "Hg9 mi
12:52 AM37 °FMostly cloudy.16 mph87%29.89 "Hg9 mi
12:00 AM37 °FLight rain. Mostly cloudy.20 mph87%29.89 "Hg9 mi
11:58 PM
Dec 27
39 °FLight rain. Mostly cloudy.21 mph81%29.89 "Hg9 mi
11:00 PM41 °FLight rain. Mostly cloudy.23 mph87%29.90 "Hg9 mi
10:00 PM46 °FOvercast.14 mph87%29.86 "Hg9 mi
9:02 PM45 °FLow clouds.15 mph93%29.88 "Hg9 mi
8:00 PM45 °FLight rain. Fog.16 mph93%29.89 "Hg4 mi
7:51 PM45 °FLight rain. Fog.21 mph93%29.91 "Hg5 mi
7:00 PM45 °FOvercast.17 mph87%29.91 "Hg9 mi
6:00 PM46 °FOvercast.15 mph82%29.92 "Hg9 mi
Weather by CustomWeather, © 2014

See weather overviewHow to use our weather pages